User: anonymous   Login
Location: Unspecified
(0.0000°N, 0.0000°E)
Time: 14:27:02
(UTC+00:00)
Language:

GRACE-FO 1 - Orbit

View from above orbital plane
View from above orbital plane
View from above satellite
View from above satellite

Ground track
Ground track

The orbit data is extracted from the following two-line orbital elements,

1 43476U 18047A   22177.07266201 +.00001718  00000-0 +69007-4 0    03
2 43476  88.9868  37.3215 0013953 326.9383 119.8467 15.24810280227737
Epoch (UTC): 26 June 2022 01:44:37
Eccentricity: 0.0013953
inclination: 88.9868°
perigee height: 482 km
apogee height: 501 km
right ascension of ascending node: 37.3215°
argument of perigee: 326.9383°
revolutions per day: 15.24810280
mean anomaly at epoch: 119.8467°
orbit number at epoch: 22773

The dashed part of the orbit path shows where the satellite is in the earth's shadow,  

DLR